#timestamp,LO_Frequency,Hit,StdDev 
1705244415.2,286047000.7,N
1705244435.1,286046998.4,N
1705244436.0,286046998.4,N
1705244455.8,286046998.4,N
1705244475.6,286047000.8,N
1705244495.5,286046998.5,N
1705244515.3,286047001.0,N
1705244535.2,286047000.6,N
1705244555.9,286047001.1,N
1705244575.7,286046998.4,N
1705244595.6,286046999.0,N
1705244615.4,286046999.2,N
1705244635.3,286046996.5,Y
1705244655.1,286046999.1,P
1705244656.0,286046999.1,N
1705244675.8,286046999.6,N
1705244695.7,286046998.3,Y
1705244715.5,286046998.1,P
1705244735.3,286047000.0,N
1705244755.2,286047000.9,N
1705244775.0,286047002.8,N
1705244775.9,286047002.8,N
1705244795.8,286047000.1,N
1705244815.6,286047001.5,N
1705244835.4,286047001.9,N
1705244855.3,286047001.8,N
1705244875.1,286047001.7,N
1705244895.8,286047003.8,N
1705244915.7,286047003.7,N
1705244935.5,286047003.3,N
1705244955.4,286047003.2,N
1705244975.2,286047003.0,N
1705244995.0,286047004.0,N
1705244995.9,286047004.0,N
1705245015.8,286047004.1,N
1705245035.6,286047003.5,N
1705245055.4,286047001.8,N
1705245075.3,286047006.0,Y
1705245095.1,286047001.9,P
1705245115.9,286047002.4,P
1705245135.7,286047002.5,P
1705245155.5,286047002.0,Y
1705245175.4,286046998.1,P
1705245195.2,286046998.7,N
1705245215.1,286047000.7,N
1705245216.0,286047000.7,N
1705245235.8,286046998.2,N
1705245255.6,286046999.0,N
1705245275.5,286046998.5,N
1705245295.3,286046998.7,N
1705245315.1,286046998.8,N
1705245335.9,286046998.9,N
1705245355.7,286046998.2,N
1705245375.6,286046998.3,N
1705245395.4,286046998.9,N
1705245415.2,286047001.1,N
1705245435.1,286047000.8,N
1705245436.0,286047000.8,N
1705245455.8,286047000.6,N
1705245475.6,286047001.1,N
1705245495.5,286047000.5,N
1705245515.3,286047000.0,N
1705245535.2,286047000.7,N
1705245555.9,286047000.7,N
1705245575.7,286046999.7,N
1705245595.6,286047000.8,N
1705245615.4,286047001.0,N
1705245635.2,286047000.9,N
1705245655.1,286047001.1,N
1705245656.0,286047001.1,N
1705245675.8,286046998.2,N
1705245695.7,286047001.1,N
1705245715.5,286047001.1,N
1705245735.3,286047000.9,N
1705245755.2,286046998.1,N
1705245775.0,286046998.9,N
1705245775.9,286046998.9,N
1705245795.7,286046999.0,N
1705245815.6,286046999.3,N
1705245835.4,286046998.8,N
1705245855.3,286046999.5,N
1705245875.1,286046999.2,N
1705245876.0,286046999.2,N
1705245895.8,286046999.6,N
1705245915.7,286046999.0,N
1705245935.5,286046996.9,Y
1705245955.4,286046996.6,P
1705245975.2,286046999.1,N
1705245995.0,286046999.0,N
1705245995.9,286046999.0,N
1705246015.8,286046997.9,N
1705246035.6,286046997.7,N
1705246055.4,286046997.2,N
1705246075.3,286046996.8,N
1705246095.1,286046998.7,N
1705246115.9,286046999.3,N
1705246135.7,286046996.5,Y
1705246155.5,286046998.1,P
1705246175.4,286046998.5,P
1705246195.2,286047000.7,P
1705246215.0,286046998.4,N
1705246216.0,286046998.4,N
1705246235.8,286047001.2,N
1705246255.6,286047000.7,N
1705246275.5,286046998.5,N
1705246295.3,286047000.8,N
1705246315.1,286047000.4,N
1705246335.9,286046998.7,N
1705246355.7,286046998.7,N
1705246375.6,286046999.3,N
1705246395.4,286046998.9,N
1705246415.2,286046999.2,N
1705246435.1,286046999.0,N
1705246436.0,286046999.0,N
1705246455.8,286046998.5,N
1705246475.6,286047001.1,N
1705246495.5,286046998.6,N
1705246515.3,286047000.8,N
1705246535.2,286046998.5,N
1705246555.9,286046998.5,N
1705246575.7,286047000.7,N
1705246595.6,286047000.1,N
1705246615.4,286046999.9,N
1705246635.3,286047000.5,N
1705246655.1,286047000.5,N
1705246656.0,286047000.5,N
1705246675.8,286047000.6,N
1705246695.7,286047001.0,N
1705246715.5,286046999.9,N
1705246735.3,286047002.7,N
1705246755.2,286047000.7,N
1705246775.0,286047000.6,N
1705246775.9,286047000.6,N
1705246825.8,286047002.6,E
1705246835.7,286047000.3,N
1705246855.5,286046998.8,P
1705246875.4,286046999.4,N
1705246895.2,286046998.4,N
1705246915.1,286046999.0,N
1705246916.0,286046999.0,N
1705246935.8,286046998.8,N
1705246955.6,286046998.9,N
1705246975.5,286046999.2,N
1705246995.3,286046999.1,N
1705247015.1,286046999.0,N
1705247035.9,286046998.2,Y
1705247055.7,286046998.1,P
1705247075.6,286046998.4,P
1705247095.4,286047000.6,N
1705247115.2,286047000.0,N
1705247135.1,286047000.2,N
1705247136.0,286047000.2,N
1705247155.8,286047000.2,N
1705247175.7,286047000.1,N
1705247195.5,286047002.2,N
1705247215.3,286046999.8,N
1705247235.2,286047000.2,N
1705247255.0,286047000.6,N
1705247255.9,286047000.6,N
1705247275.7,286047001.0,N
1705247295.6,286047001.0,N
1705247315.4,286047000.0,N
1705247335.3,286047000.4,N
1705247355.1,286047000.2,N
1705247356.0,286047000.2,N
1705247375.8,286046999.8,N
1705247395.7,286047002.1,N
1705247415.5,286047000.2,N
1705247435.3,286047002.6,N
1705247455.2,286047002.2,N
1705247475.0,286047002.6,N
1705247475.9,286047002.6,N
1705247495.8,286047002.2,N
1705247515.6,286047001.8,N
1705247535.4,286047002.4,N
1705247555.3,286047002.4,N
1705247575.1,286047001.6,N
1705247595.8,286047002.1,N
1705247615.7,286047002.3,N
1705247635.5,286047002.6,N
1705247655.4,286047000.2,N
1705247675.2,286047002.7,N
1705247695.0,286047002.2,N
1705247695.9,286047002.2,N
1705247715.8,286047000.4,N
1705247735.6,286046999.8,N
1705247755.4,286046999.9,N
1705247775.3,286047002.0,N
1705247795.1,286047002.5,N
1705247815.9,286047002.6,N
1705247835.7,286046999.7,N
1705247855.5,286047001.9,N
1705247875.4,286047002.5,N
1705247895.2,286047002.6,N
1705247915.0,286047002.2,N
1705247915.9,286047002.2,N
1705247935.8,286047001.7,N
1705247955.6,286047001.9,N
1705247975.5,286047002.2,N
1705247995.3,286047002.0,N
